Wind_Speed
4 4 5 5 4 4 4 4 3 2 2 2 4 4 4 5 5 6 7 7 8 8 8 7 7 8 9 9 10 10 10 10 10 10 10 11 11 10 12 12 13 13 14
4 4 5 4 4 4 3 3 2 2 2 2 2 3 4 5 5 5 6 6 7 7 7 7 7 7 8 8 9 10 10 10 9 9 10 10 11 11 11 12 13 13 14
4 4 5 5 4 3 3 2 2 1 1 1 2 3 3 5 5 4 5 6 6 7 6 6 6 6 7 7 7 8 9 9 9 9 10 10 10 11 12 12 13 13 13
3 4 4 4 4 3 2 1 1 0 0 1 2 2 3 4 5 5 5 5 6 6 6 6 6 6 6 7 8 8 9 9 10 10 10 11 11 11 12 12 13 13 13
3 3 3 4 3 2 2 1 1 0 0 1 1 2 3 4 4 5 5 5 5 6 5 5 6 6 6 7 7 8 9 10 10 11 11 11 12 12 12 13 13 13 14
3 3 3 3 3 2 2 1 1 1 0 1 1 2 3 3 4 4 4 5 5 5 5 5 5 5 5 6 7 8 9 9 10 11 12 12 12 13 13 13 14 14 14
2 3 3 3 3 3 2 1 1 1 1 1 1 2 2 3 3 3 3 4 5 5 6 6 6 6 6 6 7 8 9 9 10 10 11 12 13 14 14 14 14 14 14
2 2 2 3 3 3 2 2 1 1 1 0 0 1 2 3 3 3 4 4 4 5 6 6 7 6 6 6 7 8 9 8 9 10 11 12 13 14 14 15 15 15 15
1 2 2 3 3 2 2 2 1 1 1 1 1 1 2 3 4 4 5 5 5 5 6 7 8 8 8 7 7 8 8 8 9 10 11 13 14 15 15 15 16 17 17
1 2 2 2 3 2 2 1 1 1 1 2 2 2 3 3 4 5 6 6 6 6 7 7 8 9 9 9 9 9 10 11 11 11 12 13 14 15 16 17 17 18 19
2 1 1 2 2 2 2 2 1 1 2 2 2 3 3 3 4 5 6 6 7 7 7 8 8 9 10 10 11 11 11 11 12 12 13 13 14 16 17 18 19 20 20
3 2 2 2 2 3 3 2 2 2 2 2 3 3 3 4 5 5 6 7 7 8 8 9 9 10 11 12 12 12 12 13 13 13 14 15 16 17 18 18 18 19 19
4 3 3 4 4 3 3 3 3 3 3 4 4 4 4 5 5 6 6 7 7 7 8 10 10 11 12 12 13 13 13 14 14 15 16 16 17 17 17 17 18 18 18
5 5 5 5 5 5 4 5 5 5 5 5 6 6 6 6 6 7 7 8 8 9 9 10 10 11 12 13 14 14 15 15 15 15 16 17 17 18 18 18 18 18 19
8 7 6 6 6 6 6 6 6 6 7 7 7 7 7 7 8 9 9 10 10 10 11 11 12 13 13 14 14 15 15 16 16 17 17 17 18 18 19 19 20 20 21
9 8 7 7 7 7 7 8 8 8 9 9 9 9 9 10 10 10 11 11 11 12 13 13 14 15 15 15 16 16 17 17 18 18 18 18 18 19 20 21 21 21 21
9 8 8 8 8 8 8 8 9 9 10 9 9 10 10 10 11 11 12 13 13 14 14 15 16 16 16 17 17 18 18 19 19 19 20 20 21 21 21 22 22 22 23
10 9 9 9 9 9 10 10 10 10 10 10 11 11 11 11 11 12 13 14 14 15 16 17 17 18 18 18 19 19 20 20 20 21 22 22 23 23 24 24 24 25 25
10 9 10 11 11 11 11 11 11 11 11 11 11 11 12 12 13 14 15 15 16 17 17 18 18 19 19 20 20 21 21 22 22 23 24 25 25 26 26 27 27 27 27
11 11 11 12 12 12 12 12 12 13 13 13 13 13 14 14 15 16 17 17 18 18 19 19 20 20 21 22 22 23 23 24 24 25 26 27 27 28 29 29 29 30 30
13 13 13 13 13 13 14 14 14 15 15 15 15 15 16 17 17 18 18 19 19 20 20 21 22 23 23 24 25 25 26 26 27 27 28 29 29 29 30 30 31 31 32
14 14 14 14 14 14 14 15 15 16 16 16 17 17 18 18 19 19 20 20 20 21 22 23 24 25 25 26 27 27 28 28 29 29 30 31 31 31 32 32 33 34 34
14 15 15 15 16 16 16 17 17 17 17 17 18 18 19 20 20 21 21 22 22 23 24 25 26 26 27 28 28 29 30 30 31 32 33 33 33 34 34 35 36 36 36
15 15 15 15 15 16 16 17 18 18 19 19 19 20 21 21 21 21 22 23 23 24 26 27 27 28 28 29 29 30 31 32 33 34 35 35 36 36 36 38 38 38 38
14 15 15 15 16 16 17 18 19 19 19 19 20 21 21 21 22 23 24 25 25 26 28 28 29 30 31 31 31 32 33 33 34 35 36 37 37 38 38 39 40 40 41
15 15 15 16 17 17 18 18 19 19 20 20 21 21 22 23 23 24 25 26 27 28 29 30 30 31 32 32 33 33 34 35 36 37 38 39 39 39 39 39 40 41 42
Wind_Direction
328 335 340 337 333 334 335 326 314 288 251 225 220 217 215 212 212 216 218 217 219 219 221 226 230 230 233 236 236 235 236 236 234 236 241 244 245 247 243 239 241 242 243
325 330 333 335 336 333 331 330 320 292 244 213 204 208 209 206 208 214 211 214 216 219 220 225 231 232 236 238 235 231 230 231 235 239 242 246 247 249 245 245 245 248 247
326 330 333 332 336 337 341 346 348 331 245 201 201 201 200 201 200 205 207 212 217 220 220 224 231 234 237 238 236 233 231 235 241 243 246 249 250 249 249 249 249 252 250
334 339 338 338 340 341 354 8 21 41 117 192 195 195 196 197 202 204 206 211 215 218 224 228 232 238 243 243 243 238 239 243 245 249 252 250 249 250 251 252 253 251 253
336 348 346 346 347 350 4 13 20 304 204 154 164 188 195 192 197 204 211 213 213 217 222 226 233 241 248 249 247 246 249 249 251 252 253 251 250 251 254 256 254 254 257
342 356 359 4 6 7 18 34 26 2 169 141 151 177 189 189 193 196 203 207 212 218 222 230 235 242 251 250 250 249 253 252 253 254 255 253 253 257 260 257 259 261 259
351 0 0 5 11 14 24 38 21 31 49 126 145 164 178 185 191 198 209 215 219 225 229 235 241 245 254 260 261 257 257 257 258 260 261 258 256 258 258 258 260 263 261
343 354 359 9 11 14 20 26 27 24 27 36 184 206 204 210 216 222 231 234 234 237 240 242 248 252 259 265 267 262 261 260 263 264 263 259 258 259 262 263 264 262 262
332 349 358 6 10 25 35 35 28 22 359 331 286 272 256 242 244 248 248 249 249 250 255 255 255 259 262 265 267 267 264 267 271 271 269 266 264 265 267 267 265 263 262
295 317 344 4 9 13 18 18 12 359 331 307 292 283 269 259 258 260 259 260 258 258 260 263 262 262 264 265 267 269 271 272 276 275 274 271 271 271 272 271 269 268 266
281 295 337 2 3 4 2 359 337 333 324 305 293 288 279 271 266 264 264 265 265 267 266 264 266 268 269 272 273 274 275 276 277 276 277 276 275 274 275 274 272 271 269
264 270 293 322 338 341 343 348 332 320 317 310 305 293 279 277 276 274 274 273 273 272 270 271 274 275 275 276 274 274 276 276 276 277 278 277 276 276 276 274 274 273 269
257 265 283 300 309 310 317 321 315 312 306 304 302 294 285 282 282 282 282 281 282 280 279 278 277 276 276 277 278 278 277 276 277 278 280 280 278 276 277 276 275 274 271
255 264 279 289 295 294 296 297 298 297 295 296 293 289 287 284 285 285 285 285 286 286 286 286 284 282 280 280 281 282 281 279 280 281 282 282 281 277 276 276 275 274 272
259 265 276 283 285 288 292 293 292 290 289 289 290 288 285 285 286 285 283 284 285 287 286 286 287 287 286 283 284 285 283 283 284 284 285 285 284 282 279 279 278 277 276
259 264 274 282 286 290 291 293 291 292 292 290 288 286 285 284 285 284 284 285 285 285 286 286 286 286 287 285 286 286 285 285 285 285 285 285 285 285 283 282 280 279 277
259 263 271 277 284 290 294 295 294 292 293 293 292 291 289 289 289 288 287 286 287 286 287 287 287 288 287 287 286 286 285 285 285 286 287 287 285 284 284 283 282 280 279
258 260 267 273 279 287 293 297 297 297 293 293 294 294 290 289 289 289 289 288 287 287 287 286 287 287 288 288 287 287 287 287 287 287 288 288 286 285 285 285 284 283 281
257 263 268 274 277 282 285 290 293 296 296 296 296 294 292 290 289 289 289 289 289 288 287 287 287 287 287 287 286 286 286 286 287 288 288 288 286 286 286 285 285 284 283
263 266 271 276 279 282 284 286 289 291 292 292 294 294 292 290 290 289 289 289 289 288 288 289 289 288 288 287 287 287 286 286 287 288 289 289 287 287 286 285 285 284 283
264 269 272 275 277 280 282 285 288 289 290 290 291 292 292 292 292 291 290 290 290 289 289 290 289 289 288 288 288 288 288 288 288 289 289 290 288 287 287 287 286 285 284
266 269 273 276 277 280 282 285 286 287 288 288 290 291 292 292 292 292 291 291 291 291 291 291 290 290 289 288 288 288 288 288 288 288 289 290 289 288 288 288 287 287 286
267 270 273 275 276 278 280 283 286 286 288 288 290 290 291 292 292 291 291 290 291 292 292 292 292 291 291 290 289 289 288 287 288 288 288 290 289 288 289 288 288 287 285
270 273 273 276 278 279 282 286 286 286 288 289 291 292 292 292 293 293 292 292 293 294 294 294 293 293 292 291 289 289 288 288 288 288 289 289 289 289 289 289 288 287 286
272 274 276 276 279 281 283 287 290 290 290 291 292 293 293 293 293 293 292 292 293 294 295 295 295 294 293 292 290 289 289 289 289 289 290 290 289 288 289 289 288 288 287
272 273 276 279 281 283 285 287 289 290 290 292 293 293 293 293 293 293 293 294 294 295 295 295 296 297 296 294 292 291 290 290 290 290 291 291 289 289 289 289 290 289 289
Height
5878 5877 5876 5874 5873 5872 5871 5870 5869 5868 5868 5868 5868 5868 5868 5869 5870 5870 5871 5871 5872 5872 5873 5873 5874 5874 5874 5874 5874 5875 5876 5877 5878 5878 5879 5879 5879 5879 5880 5880 5881 5881 5882
5877 5876 5875 5874 5873 5871 5870 5869 5868 5868 5868 5867 5867 5868 5868 5869 5869 5870 5870 5871 5871 5872 5872 5872 5873 5873 5873 5872 5871 5873 5874 5875 5876 5877 5877 5878 5878 5878 5878 5878 5879 5879 5880
5876 5875 5874 5873 5872 5871 5870 5869 5868 5868 5868 5867 5867 5868 5868 5868 5869 5869 5870 5870 5871 5871 5871 5872 5872 5872 5872 5871 5871 5872 5873 5874 5875 5875 5876 5876 5876 5876 5876 5876 5877 5877 5877
5876 5875 5874 5873 5872 5871 5870 5869 5868 5868 5868 5867 5867 5867 5868 5868 5868 5869 5869 5869 5870 5870 5871 5871 5871 5871 5871 5871 5871 5871 5872 5873 5873 5874 5874 5874 5874 5874 5874 5874 5874 5874 5875
5875 5874 5873 5872 5871 5870 5869 5869 5868 5868 5868 5867 5867 5867 5867 5868 5868 5868 5869 5869 5869 5870 5870 5870 5871 5871 5870 5870 5870 5870 5870 5871 5871 5871 5872 5872 5872 5872 5872 5872 5872 5872 5872
5875 5874 5873 5872 5871 5870 5869 5869 5868 5868 5867 5867 5867 5867 5867 5868 5868 5868 5868 5868 5869 5869 5870 5870 5870 5870 5870 5869 5869 5869 5869 5869 5869 5869 5869 5869 5869 5869 5869 5869 5869 5869 5869
5875 5874 5873 5872 5871 5870 5870 5869 5868 5868 5868 5867 5867 5867 5868 5868 5868 5868 5868 5868 5868 5868 5869 5869 5869 5869 5868 5868 5868 5867 5867 5867 5867 5867 5867 5867 5866 5866 5866 5866 5866 5866 5866
5875 5874 5873 5872 5871 5870 5870 5869 5869 5868 5868 5868 5868 5867 5868 5868 5868 5868 5868 5868 5867 5868 5868 5868 5868 5867 5867 5867 5866 5866 5866 5865 5865 5864 5864 5864 5863 5863 5863 5863 5863 5863 5863
5874 5874 5873 5872 5872 5871 5870 5869 5869 5869 5868 5868 5868 5868 5868 5868 5868 5868 5867 5867 5867 5867 5867 5867 5866 5866 5866 5865 5865 5864 5864 5863 5863 5862 5861 5861 5860 5860 5860 5859 5859 5859 5859
5874 5874 5873 5873 5872 5871 5870 5870 5869 5869 5868 5868 5867 5867 5867 5867 5867 5867 5867 5866 5866 5866 5865 5865 5865 5864 5864 5863 5863 5862 5861 5861 5860 5859 5859 5858 5857 5857 5856 5855 5855 5854 5854
5874 5874 5873 5873 5872 5871 5870 5869 5869 5868 5868 5868 5867 5867 5866 5866 5866 5866 5866 5865 5865 5864 5864 5863 5863 5862 5862 5861 5861 5860 5859 5859 5858 5857 5856 5855 5854 5853 5852 5851 5850 5849 5847
5874 5873 5873 5872 5872 5871 5870 5869 5869 5868 5868 5867 5867 5866 5866 5866 5865 5865 5864 5864 5863 5863 5862 5862 5861 5860 5860 5859 5858 5858 5857 5856 5855 5854 5853 5852 5850 5849 5848 5847 5845 5843 5841
5873 5873 5872 5872 5871 5871 5870 5869 5868 5868 5867 5867 5866 5866 5865 5865 5864 5863 5863 5862 5861 5861 5860 5860 5859 5858 5857 5856 5855 5855 5854 5853 5852 5851 5849 5848 5847 5846 5844 5843 5841 5839 5837
5872 5872 5871 5871 5870 5870 5869 5868 5868 5867 5866 5866 5865 5865 5864 5863 5863 5862 5861 5861 5860 5859 5858 5857 5856 5855 5854 5854 5853 5852 5851 5849 5848 5847 5846 5844 5843 5841 5840 5839 5837 5836 5835
5870 5870 5870 5870 5869 5868 5868 5867 5866 5866 5865 5864 5864 5863 5862 5862 5861 5860 5859 5859 5858 5857 5856 5855 5854 5853 5851 5850 5849 5848 5847 5846 5845 5843 5842 5841 5839 5837 5836 5835 5833 5832 5830
5868 5868 5868 5868 5867 5867 5866 5866 5865 5864 5863 5863 5862 5861 5860 5859 5858 5858 5857 5856 5855 5854 5853 5852 5851 5849 5848 5847 5846 5844 5843 5842 5841 5839 5838 5837 5835 5833 5832 5830 5829 5827 5825
5866 5866 5866 5866 5866 5865 5865 5864 5863 5862 5862 5861 5860 5859 5858 5857 5856 5855 5854 5853 5852 5851 5850 5849 5847 5846 5845 5843 5842 5840 5839 5838 5836 5835 5833 5832 5831 5829 5827 5825 5824 5822 5820
5864 5864 5864 5864 5863 5863 5863 5862 5861 5860 5859 5858 5857 5856 5855 5854 5853 5852 5851 5850 5848 5847 5846 5845 5843 5842 5840 5839 5838 5836 5835 5833 5831 5830 5828 5827 5825 5823 5822 5820 5818 5817 5815
5861 5861 5861 5861 5861 5860 5860 5859 5858 5858 5857 5855 5854 5853 5852 5851 5850 5848 5847 5846 5844 5843 5842 5840 5839 5837 5836 5834 5833 5831 5829 5828 5826 5824 5823 5821 5819 5817 5815 5814 5812 5810 5809
5859 5859 5858 5858 5858 5857 5857 5856 5855 5854 5853 5852 5851 5850 5848 5847 5846 5844 5843 5841 5840 5838 5837 5835 5834 5832 5830 5829 5827 5825 5824 5822 5820 5818 5816 5814 5812 5810 5808 5806 5805 5803 5801
5855 5855 5855 5855 5854 5854 5853 5852 5852 5851 5850 5849 5847 5846 5844 5843 5841 5840 5838 5837 5835 5833 5831 5830 5828 5826 5824 5822 5821 5819 5817 5815 5813 5811 5809 5806 5804 5802 5800 5798 5796 5794 5793
5852 5852 5851 5851 5851 5850 5849 5849 5848 5847 5845 5844 5843 5841 5840 5838 5836 5834 5833 5831 5829 5827 5825 5823 5821 5820 5818 5816 5814 5812 5810 5808 5806 5804 5801 5798 5796 5794 5791 5789 5787 5785 5783
5848 5848 5847 5847 5846 5846 5845 5844 5843 5842 5841 5839 5838 5836 5835 5833 5831 5829 5827 5825 5823 5821 5819 5817 5814 5812 5810 5808 5806 5804 5802 5799 5797 5795 5792 5790 5787 5784 5782 5780 5777 5775 5773
5844 5844 5843 5843 5842 5841 5841 5840 5838 5837 5835 5834 5833 5831 5829 5827 5825 5823 5821 5819 5816 5814 5812 5809 5807 5804 5802 5799 5797 5795 5793 5791 5788 5785 5783 5780 5777 5775 5772 5769 5766 5764 5761
5840 5839 5839 5838 5837 5837 5836 5835 5833 5832 5830 5829 5827 5825 5823 5821 5819 5816 5814 5812 5810 5807 5804 5801 5799 5796 5793 5790 5788 5786 5783 5781 5778 5776 5772 5770 5767 5764 5761 5758 5754 5751 5749
5835 5835 5834 5834 5833 5832 5831 5829 5828 5826 5825 5823 5821 5819 5817 5815 5813 5810 5807 5805 5802 5799 5796 5793 5790 5787 5784 5781 5778 5775 5773 5770 5768 5765 5762 5758 5755 5752 5749 5746 5742 5739 5736